User: anonymous   Login
Location: Unspecified
(0.0000°N, 0.0000°E)
Time: 21:44:48
(UTC+00:00)
Language:

PAYLOAD C - Orbit

View from above orbital plane
View from above orbital plane
View from above satellite
View from above satellite

Ground track
Ground track

The orbit data is extracted from the following two-line orbital elements,

1 27057U 01058C   17117.74440987 -.00000011 +00000-0 -12071-3 0  9993
2 27057 082.5475 190.6166 0002183 081.7780 278.3560 12.61541712706024
Epoch (UTC): 27 April 2017 17:51:57
Eccentricity: 0.0002183
inclination: 82.5475°
perigee height: 1415 km
apogee height: 1418 km
right ascension of ascending node: 190.6166°
argument of perigee: 81.7780°
revolutions per day: 12.61541712
mean anomaly at epoch: 278.3560°
orbit number at epoch: 70602

The dashed part of the orbit path shows where the satellite is in the earth's shadow,  

DLR